GW3496 Weather Reports


time (UTC)temp
C
wind
direction
speed
KPH
gust
KPH
rain 1hr
cm
rain 24hr
cm
rain mn
cm
humidity
%
barometer
mb
20260905234544 24 348 0.0 6.4 0.03 0.66 0.66 88 1009.1
20260905233043 25 328 1.6 6.4 0.03 0.66 0.66 87 1009.3
20260905231540 25 313 0.0 4.8 0.03 0.66 0.66 86 1009.2
20260905230048 25 281 3.2 8.0 0.03 0.66 0.66 84 1008.8
20260905224558 26 291 1.6 6.4 0.00 0.64 0.64 82 1009.2
20260905223041 26 257 4.8 11.3 0.03 0.64 0.64 80 1009.1
20260905221555 26 242 3.2 6.4 0.03 0.64 0.64 80 1009.2
20260905220043 26 245 4.8 8.0 0.03 0.64 0.64 80 1009.0
20260905214541 26 181 4.8 9.7 0.03 0.64 0.64 80 1008.4
20260905213039 26 217 3.2 8.0 0.03 0.61 0.61 80 1008.8
20260905211539 25 202 4.8 6.4 0.03 0.61 0.61 80 1008.9
20260905210043 25 232 0.0 3.2 0.03 0.61 0.61 82 1008.6
20260905204538 25 186 1.6 9.7 0.05 0.61 0.61 83 1008.9
20260905203056 25 219 4.8 9.7 0.03 0.56 0.56 84 1008.9
20260905201545 24 252 9.7 16.1 0.05 0.56 0.56 86 1008.7
20260905200053 24 218 11.3 16.1 0.05 0.56 0.56 85 1008.8
20260905194538 24 242 9.7 17.7 0.05 0.56 0.56 86 1008.9
20260905193042 24 245 9.7 16.1 0.05 0.56 0.56 87 1009.2
20260905191540 24 245 8.0 12.9 0.05 0.53 0.53 89 1009.3
20260905190042 23 213 6.4 12.9 0.08 0.53 0.53 91 1009.2
20260905184559 23 185 1.6 12.9 0.08 0.48 0.48 93 1009.5
20260905183043 23 250 9.7 16.1 0.10 0.48 0.48 93 1009.7
20260905181601 23 189 6.4 14.5 0.10 0.48 0.48 94 1009.5
20260905180038 22 55 0.0 0.0 0.15 0.46 0.46 93 1009.0
20260905174551 22 23 0.0 8.0 0.18 0.41 0.41 92 1008.9
20260905173042 22 144 1.6 4.8 0.30 0.36 0.36 92 1008.9
20260905171543 22 105 3.2 6.4 0.36 0.36 0.36 92 1009.3
20260905170042 22 144 3.2 8.0 0.28 0.28 0.28 90 1009.6
20260905164545 22 53 0.0 12.9 0.20 0.20 0.20 89 1010.1
20260905163044 24 248 24.1 43.5 0.08 0.08 0.08 83 1011.5
20260905161540 25 304 1.6 12.9 0.00 0.00 0.00 80 1011.0
20260905160107 25 360 8.0 16.1 0.00 0.00 0.00 78 1010.8
20260905154548 26 360 8.0 16.1 0.00 0.00 0.00 77 1010.7
20260905153042 26 33 8.0 19.3 0.00 0.00 0.00 77 1010.4
20260905151540 26 26 4.8 12.9 0.00 0.00 0.00 77 1010.5
20260905150040 26 344 3.2 16.1 0.00 0.00 0.00 77 1010.8
20260905144544 26 15 8.0 16.1 0.00 0.00 0.00 77 1010.8
20260905143044 26 13 8.0 16.1 0.00 0.00 0.00 77 1011.0
20260905141544 26 31 4.8 14.5 0.00 0.00 0.00 77 1010.5
20260905140049 26 344 3.2 14.5 0.00 0.00 0.00 78 1010.4
20260905134543 26 17 6.4 14.5 0.00 0.00 0.00 78 1010.1
20260905133043 25 38 4.8 17.7 0.00 0.00 0.00 80 1009.8
20260905131541 25 50 6.4 16.1 0.00 0.00 0.00 82 1010.3
20260905130039 23 336 6.4 12.9 0.00 0.00 0.00 87 1009.9
20260905124543 23 337 1.6 8.0 0.00 0.00 0.00 88 1010.2
20260905123043 22 52 0.0 4.8 0.00 0.00 0.00 89 1009.8
20260905121539 22 47 4.8 8.0 0.00 0.00 0.00 89 1009.6
20260905120042 22 5 0.0 4.8 0.00 0.00 0.00 90 1009.8
20260905114546 22 82 1.6 6.4 0.00 0.00 0.00 91 1009.5
20260905113047 22 67 0.0 0.0 0.00 0.00 0.00 92 1009.5
20260905111607 22 84 0.0 0.0 0.00 0.00 0.00 92 1009.5
20260905110056 22 84 0.0 0.0 0.00 0.00 0.00 92 1008.8
20260905104550 21 350 0.0 0.0 0.00 0.00 0.00 91 1008.7
20260905103049 22 350 0.0 0.0 0.00 0.00 0.00 91 1008.7
20260905101543 22 350 0.0 0.0 0.00 0.00 0.00 91 1008.5
20260905100045 22 355 0.0 0.0 0.00 0.00 0.00 91 1008.6
20260905094539 22 338 1.6 6.4 0.00 0.00 0.00 91 1008.3
20260905093045 22 302 0.0 0.0 0.00 0.00 0.00 91 1008.1
20260905091611 22 324 1.6 6.4 0.00 0.00 0.00 91 1008.1
20260905090116 22 331 3.2 8.0 0.00 0.00 0.00 91 1008.2
20260905084556 22 316 4.8 9.7 0.00 0.00 0.00 91 1008.3
20260905083045 22 295 3.2 8.0 0.00 0.00 0.00 91 1008.5
20260905081542 22 302 3.2 6.4 0.00 0.00 0.00 91 1008.7
20260905080055 22 250 3.2 9.7 0.00 0.00 0.00 91 1008.8
20260905074549 22 336 1.6 8.0 0.00 0.05 0.00 91 1008.9
20260905073051 22 323 3.2 8.0 0.00 0.05 0.00 91 1009.0
20260905071550 22 5 3.2 9.7 0.00 0.05 0.00 90 1009.0
20260905070057 22 304 6.4 16.1 0.00 0.05 0.00 90 1009.3
20260905064550 22 285 3.2 12.9 0.00 0.30 0.00 90 1009.4
20260905063045 22 281 8.0 17.7 0.00 0.30 0.00 90 1009.7
20260905061557 22 302 3.2 16.1 0.00 0.30 0.00 90 1009.7
20260905060116 22 298 9.7 17.7 0.00 0.30 0.00 90 1010.1
20260905054549 22 290 8.0 16.1 0.00 1.19 0.00 89 1010.3
20260905053052 22 259 9.7 14.5 0.00 1.19 0.00 89 1010.3
20260905051558 23 260 8.0 14.5 0.00 1.19 0.00 89 1010.5
20260905050055 23 194 0.0 8.0 0.00 1.19 0.00 89 1010.8
20260905044602 23 127 1.6 8.0 0.00 1.19 0.00 89 1010.8
20260905043529 23 239 6.4 12.9 0.00 1.19 0.00 89 1010.7
20260905041537 23 299 3.2 16.1 0.00 1.19 0.00 88 1010.9
20260905040036 23 271 1.6 6.4 0.00 1.19 0.00 87 1011.1
20260905034547 23 211 0.0 6.4 0.00 1.19 1.19 87 1011.1
20260905033037 23 304 0.0 0.0 0.00 1.19 1.19 86 1011.0
20260905031538 23 231 1.6 9.7 0.00 1.19 1.19 86 1010.9
20260905030039 24 254 3.2 11.3 0.00 1.19 1.19 85 1011.0
20260905024538 24 252 0.0 6.4 0.00 1.19 1.19 85 1011.1
20260905023037 24 259 3.2 6.4 0.00 1.19 1.19 84 1011.3
20260905021534 25 164 0.0 0.0 0.00 1.19 1.19 84 1011.1
20260905020040 24 244 0.0 4.8 0.00 1.19 1.19 84 1011.2
20260905014538 24 211 0.0 6.4 0.00 1.19 1.19 84 1010.7
20260905013039 24 257 3.2 6.4 0.00 1.19 1.19 84 1010.6
20260905011542 24 196 0.0 3.2 0.00 1.19 1.19 84 1010.5
20260905010036 25 263 0.0 0.0 0.00 1.19 1.19 84 1010.2
20260905004547 25 250 0.0 6.4 0.00 1.19 1.19 83 1010.0
20260905003034 25 184 1.6 11.3 0.00 1.19 1.19 83 1009.9
20260905001548 25 193 4.8 11.3 0.00 1.19 1.19 84 1009.7
20260905000040 25 319 3.2 12.9 0.00 1.19 1.19 83 1010.3